Powrót do katalogu

BREEZE-M R/B

AktywnyHEO
NORAD 34942·ROCKET BODY·🇷🇺 Russia

Wystrzelony May 16, 2009 z Baikonur Cosmodrome

Loading…

Następne Przeloty (najbliższe 24 godziny)

TLE

ŚwieżeSource: Space-Track

Epoka: Sep 14, 2026, 06:59 UTC

1 34942U 09027B   26257.29163105 -.00000131  00000-0  00000-0 0  9995
2 34942   8.1507 288.7796 3394981 285.6150 288.0915  1.57274320 99558

Śledź BREEZE-M R/B w czasie rzeczywistym z AllMySat

Download on the App Store